EHI
0 0 0 0 0 0 0 0 0 0 0 0 0 0 0 0 0 0 0 0 0 0 0 0 0 0 0 0 0 0 0 0 0 0 0 0 0 0 0 0 0 0 0 0
0 0 0 0 0 0 0 0 0 0 0 0 0 0 0 0 0 0 0 0 0 0 0 0 0 0 0 0 0 0 0 0 0 0 0 0 0 0 0 0 0 0 0 0
0 0 0 0 0 0 0 0 0 0 0 0 0 0 0 0 0 0 0 0 0 0 0 0 0 0 0 0 0 0 0 0 0 0 0 0 0 0 0 0 0 0 0 0
0 0 0 0 0 0 0 0 0 0 0 0 0 0 0 0 0 0 0 0 0 0 0 0 0 0 0 0 0 0 0 0 0 0 0 0 0 0 0 0 0 0 0 0
0 0 0 0 0 0 0 0 0 0 0 0 0 0 0 0 0 0 0 0 0 0 0 0 0 0 0 0 0 0 0 0 0 0 0 0 0 0 0 0 0 0 0 0
0 0 0 0 0 0 0 0 0 0 0 0 0 0 0 0 0 0 0 0 0 0 0 0 0 0 0 0 0 0 0 0 0 0 0 0 0 0 0 0 0 0 0 0
0 0 0 0 0 0 0 0 0 0 0 0 0 0 0 0 0 0 0 0 0 0 0 0 0 0 0 0 0 0 0 0 0 0 0 0 0 0 0 0 0 0 0 0
0 0 0 0 0 0 0 0 0 0 0 0 0 0 0 0 0 0 0 0 0 0 0 0 0 0 0 0 0 0 0 0 0 0 0 0 0 0 0 0 0 0 0 0
0 0 0 0 0 0 0 0 0 0 0 0 0 0 0 0 0 0 0 0 0 0 0 0 0 0 0 0 0 0 0 0 0 0 0 0 0 0 0 0 0 0 0 0
0 0 0 0 0 0 0 0 0 0 0 0 0 0 0 0 0 0 0 0 0 0 0 0 0 0 0 0 0 0 0 0 0 0 0 0 0 0 0 0 0 0 0 0
0 0 0 0 0 0 0 0 0 0 0 0 0 0 0 0 0 0 0 0 0 0 0 0 0 0 0 0 0 0 0 0 0 0 0 0 0 0 0 0 0 0 0 0
0 0 0 0 0 0 0 0 0 0 0 0 0 0 0 0 0 0 0 0 0 0 0 0 0 0 0 0 0 0 0 0 0 0 0 0 0 0 0 0 0 0 0 0
0 0 0 0 0 0 0 0 0 0 0 0 0 0 0 0 0 0 0 0 0 0 0 0 0 0 0 0 0 0 0 0 0 0 0 0 0 0 0 0 0 0 0 0
0 0 0 0 0 0 0 0 0 0 0 0 0 0 0 0 0 0 0 0 0 0 0 0 0 0 0 0 0 0 0 0 0 0 0 0 0 0 0 0 0 0 0 0
0 0 0 0 0 0 0 0 0 0 0 0 0 0 0 0 0 0 0 0 0 0 0 0 0 0 0 0 0 0 0 0 0 0 0 0 0 0 0 0 0 0 0 0
0 0 0 0 0 0 0 0 0 0 0 0 0 0 0 0 0 0 0 0 0 0 0 0 0 0 0 0 0 0 0 0 0 0 0 0 0 0 0 0 0 0 0 0
0 0 0 0 0 0 0 0 0 0 0 0 0 0 0 0 0 0 0 0 0 0 0 0 0 0 0 0 0 0 0 0 0 0 0 0 0 0 0 0 0 0 0 0
0 0 0 0 0 0 0 0 0 0 0 0 0 0 0 0 0 0 0 0 0 0 0 0 0 0 0 0 0 0 0 0 0 0 0 0 0 0 0 0 0 0 0 0
0 0 0 0 0 0 0 0 0 0 0 0 0 0 0 0 0 0 0 0 0 0 0 0 0 0 0 0 0 0 0 0 0 0 0 0 0 0 0 0 0 0 0 0
0 0 0 0 0 0 0 0 0 0 0 0 0 0 0 0 0 0 0 0 0 0 0 0 0 0 0 0 0 0 0 0 0 0 0 0 0 0 0 0 0 0 0 0
0 0 0 0 0 0 0 0 0 0 0 0 0 0 0 0 0 0 0 0 0 0 0 0 0 0 0 0 0 0 0 0 0 0 0 0 0 0 0 0 0 0 0 0
0 0 0 0 0 0 0 0 0 0 0 0 0 0 0 0 0 0 0 0 0 0 0 0 0 0 0 0 0 0 0 0 0 0 0 0 0 0 0 0 0 0 0 0
0 0 0 0 0 0 0 0 0 0 0 0 0 0 0 0 0 0 0 0 0 0 0 0 0 0 0 0 0 0 0 0 0 0 0 0 0 0 0 0 0 0 0 0
0 0 0 0 0 0 0 0 0 0 0 0 0 0 0 0 0 0 0 0 0 0 0 0 0 0 0 0 0 0 0 0 0 0 0 0 0 0 0 0 0 0 0 0
0 0 0 0 0 0 0 0 0 0 0 0 0 0 0 0 0 0 0 0 0 0 0 0 0 0 0 0 0 0 0 0 0 0 0 0 0 0 0 0 0 0 0 0
0 0 0 0 0 0 0 0 0 0 0 0 0 0 0 0 0 0 0 0 0 0 0 0 0 0 0 0 0 0 0 0 0 0 0 0 0 0 0 0 0 0 0 0
0 0 0 0 0 0 0 0 0 0 0 0 0 0 0 0 0 0 0 0 0 0 0 0 0 0 0 0 0 0 0 0 0 0 0 0 0 0 0 0 0 0 0 0
Wind_Speed
9 6 6 8 9 10 10 6 4 3 4 6 6 6 7 6 7 8 8 8 7 7 6 6 5 5 5 5 5 6 6 6 6 5 4 4 4 5 5 6 6 5 5 6
8 5 5 7 6 6 6 5 4 3 4 3 3 4 6 7 8 8 8 9 8 7 6 6 6 6 6 6 5 5 6 6 6 6 6 6 6 6 6 7 7 7 7 7
5 6 4 3 5 4 4 4 3 4 3 3 4 6 7 7 8 8 8 8 8 7 6 6 6 6 6 6 6 6 7 7 7 7 7 7 7 7 6 7 7 7 8 7
2 6 0 6 5 3 1 3 2 1 1 2 1 2 5 6 7 8 8 8 8 7 6 6 6 5 6 6 7 7 7 7 7 7 7 7 7 7 7 6 6 6 7 6
3 1 6 7 7 5 2 4 3 2 3 3 2 3 7 9 8 7 7 6 6 7 7 7 6 6 6 7 7 7 6 6 7 7 7 7 6 6 6 5 5 5 5 6
4 4 2 7 10 5 3 3 5 2 4 6 6 4 6 7 7 6 5 5 6 6 7 6 6 6 6 7 7 6 6 6 6 6 6 7 6 5 4 4 4 4 4 5
5 3 6 10 10 6 3 6 7 4 5 7 8 6 5 6 6 5 4 5 5 5 5 5 5 5 6 6 6 5 5 5 5 5 5 6 6 5 5 5 4 4 4 3
3 2 4 12 8 3 6 8 7 6 6 5 5 5 5 6 5 5 5 5 5 4 4 3 4 5 5 4 3 3 3 3 4 5 6 6 5 6 6 6 6 6 5 5
4 4 8 10 5 5 6 7 7 6 5 3 4 5 5 5 5 5 5 5 4 4 4 3 4 4 4 3 2 2 3 3 4 5 5 6 6 6 6 6 5 5 5 5
2 8 10 8 8 6 4 6 6 5 4 3 4 5 5 4 5 5 5 4 4 4 5 4 2 3 3 2 1 1 3 3 4 5 5 6 5 5 6 6 6 6 6 6
4 7 9 9 8 9 7 6 6 4 3 3 3 4 4 4 5 4 4 4 4 4 4 5 3 3 4 4 4 2 4 4 5 4 4 5 5 5 5 5 4 4 4 5
3 8 8 11 11 11 10 8 6 5 4 2 2 3 4 4 4 4 5 5 5 4 4 5 4 4 4 3 4 4 4 4 3 3 3 4 5 4 7 6 6 8 8 6
2 4 4 11 14 12 11 9 7 5 3 2 1 2 3 3 3 4 5 5 5 5 4 5 4 5 4 3 4 4 5 4 3 3 2 2 3 4 3 2 4 7 8 8
4 5 6 9 12 11 10 9 8 6 5 3 1 1 2 3 4 4 5 5 5 4 4 4 5 5 4 2 2 3 5 4 3 2 2 3 2 2 2 3 2 2 2 4
6 5 6 8 10 10 9 8 7 6 6 5 3 0 2 3 4 4 4 5 5 4 5 5 5 4 4 3 3 4 4 3 3 2 1 2 2 2 2 3 3 2 2 1
9 6 8 10 11 11 10 9 8 7 6 4 3 1 1 2 2 2 3 4 5 4 4 5 5 4 3 2 2 4 4 3 3 1 0 1 1 2 2 2 3 3 4 3
12 10 9 10 11 11 10 9 7 6 6 5 3 1 1 2 2 2 3 4 4 2 4 5 5 5 4 3 1 2 4 3 1 3 0 2 1 2 2 3 3 3 3 2
11 10 10 10 10 10 9 9 7 5 4 4 4 2 3 2 2 2 3 4 4 2 5 5 5 7 5 2 2 1 2 4 3 1 2 2 1 1 2 2 3 4 3 2
10 11 10 10 9 9 8 7 6 5 4 4 4 4 2 2 1 2 4 4 3 3 5 5 9 8 3 3 3 2 2 1 2 2 3 3 2 1 2 2 3 3 3 2
9 10 10 10 9 8 8 7 6 5 5 5 4 4 3 3 1 2 3 3 1 3 3 5 7 6 4 3 3 4 3 2 1 2 3 3 3 2 2 2 2 3 3 3
8 9 10 9 8 7 7 7 6 5 5 4 4 4 4 2 1 2 3 3 2 3 3 7 4 3 5 5 4 4 4 3 2 2 2 3 3 2 2 2 3 2 3 3
7 8 9 9 8 8 7 6 6 6 6 5 5 4 4 3 3 3 4 3 1 3 2 4 2 3 5 7 4 5 4 3 2 2 1 2 2 2 2 3 3 3 3 3
7 8 9 9 10 9 9 8 7 7 6 6 6 6 5 4 3 2 3 1 2 3 1 3 2 5 8 6 5 5 5 4 3 3 3 3 3 2 2 2 3 3 3 3
4 6 8 9 10 10 10 9 8 6 7 6 5 6 5 4 3 4 4 4 4 3 3 4 5 7 8 5 5 5 4 3 3 3 3 3 3 3 2 3 3 3 3 4
4 4 5 7 8 7 8 8 8 7 7 5 6 7 5 4 4 3 3 2 6 5 4 5 7 8 7 6 4 4 3 2 2 2 2 2 2 2 2 3 3 4 4 4
5 3 3 3 4 3 4 4 5 5 6 5 5 4 5 4 5 4 3 3 5 6 4 4 5 6 5 3 3 4 4 3 2 3 4 3 3 4 4 3 4 4 4 4
5 3 1 2 3 2 2 3 3 4 5 6 5 5 5 5 5 5 6 5 5 5 5 5 4 4 3 2 3 4 4 4 3 2 3 4 4 4 4 5 4 4 4 4
Wind_Direction
94 98 78 65 55 54 59 59 65 52 23 1 344 343 347 357 4 11 10 15 17 18 18 23 29 33 31 28 30 30 31 33 29 28 25 22 16 11 11 9 4 10 14 24
131 133 112 89 74 69 68 66 75 78 51 344 333 351 3 9 15 20 16 14 18 26 26 28 33 39 38 38 38 41 42 40 35 35 30 28 27 25 25 23 17 21 23 34
143 163 211 112 95 85 75 60 37 41 26 338 5 18 18 16 22 24 23 13 10 22 25 29 38 51 50 43 41 42 44 39 36 38 37 33 31 29 33 37 34 34 34 43
206 188 142 100 120 129 128 109 89 52 350 309 334 34 45 33 29 26 21 11 4 17 27 27 29 52 67 54 44 39 40 43 39 35 35 34 35 35 34 39 43 42 36 41
308 70 124 149 170 188 219 116 113 66 25 341 233 146 60 41 35 29 18 8 360 10 25 26 27 37 57 62 52 42 37 41 41 36 31 29 31 35 32 32 40 49 38 35
289 298 73 132 140 153 228 156 127 77 37 16 36 70 39 28 31 24 20 7 358 11 20 17 21 34 48 57 51 42 34 36 42 40 35 28 23 24 26 30 32 54 56 46
276 301 95 123 135 167 238 119 126 101 61 46 45 46 26 21 25 14 20 16 3 7 13 7 15 42 48 48 52 47 36 34 35 34 47 41 22 17 20 22 22 30 47 53
267 270 137 143 158 196 104 116 125 103 73 57 43 40 30 23 22 14 11 19 7 357 350 355 29 39 60 50 51 65 51 42 52 48 38 39 35 26 23 18 24 25 24 26
12 66 109 150 150 103 123 130 115 102 86 60 39 34 25 17 21 14 6 15 355 338 343 11 41 41 54 59 35 73 66 43 64 75 63 40 36 35 28 25 26 23 17 18
247 156 159 170 136 137 144 114 106 104 101 60 34 27 18 16 24 12 1 0 347 358 8 355 20 51 56 35 344 106 97 67 71 69 70 59 37 40 42 25 20 17 16 15
240 138 151 182 169 164 161 145 143 137 112 76 32 21 8 20 22 4 352 356 8 17 345 330 18 60 61 20 342 38 89 85 85 83 88 85 67 43 45 53 35 19 7 13
228 169 170 183 178 171 166 170 166 159 147 127 72 26 7 18 13 0 360 5 7 4 342 348 20 49 71 30 350 33 70 67 68 91 96 120 121 93 51 60 55 54 44 40
38 120 139 153 168 172 172 175 168 165 158 142 85 47 9 2 14 11 10 8 354 351 355 3 22 40 56 45 9 35 68 64 56 52 68 91 127 143 137 88 53 52 49 48
117 140 127 147 162 170 176 172 169 172 169 165 100 29 7 2 17 12 9 356 336 348 13 15 33 39 35 37 24 62 89 82 76 65 53 59 64 82 116 139 139 111 63 46
168 178 156 155 157 172 173 171 180 187 182 171 160 159 29 10 2 358 5 351 338 7 24 21 35 32 12 2 23 57 65 63 56 62 64 84 90 88 75 79 90 94 96 37
177 188 160 165 170 178 178 183 192 195 184 175 171 155 51 343 316 351 10 350 342 8 22 23 27 8 348 344 65 92 91 62 15 332 157 126 99 98 92 87 84 76 62 31
179 189 181 180 181 184 189 192 200 198 183 179 175 152 278 287 303 19 1 332 324 3 47 35 19 339 318 307 284 146 140 139 238 282 25 78 67 80 93 93 91 89 85 55
188 191 190 188 187 188 193 196 202 201 185 169 146 187 250 286 343 359 333 319 326 29 59 36 6 321 301 324 337 356 160 166 192 177 107 78 31 71 98 107 115 120 137 141
187 187 190 193 189 189 193 195 193 192 189 166 173 211 233 270 313 330 322 319 342 19 23 9 334 309 306 75 13 310 286 176 176 152 132 129 236 224 144 134 129 131 136 136
191 187 189 192 191 188 188 187 186 188 185 177 187 205 226 238 231 300 305 305 66 70 348 337 316 316 355 52 11 301 285 244 228 183 164 175 216 206 159 146 139 141 142 132
200 192 191 192 187 184 185 184 180 181 179 179 197 215 224 230 222 253 280 294 93 74 337 310 302 11 15 354 312 288 283 262 237 233 185 186 210 201 181 175 165 160 151 143
211 204 197 193 185 184 185 190 184 181 183 184 196 217 226 231 240 244 245 230 144 103 322 305 13 26 340 322 284 272 271 267 250 234 209 204 209 212 201 180 168 161 150 144
215 211 204 199 194 192 189 196 194 184 186 191 196 204 214 217 226 238 262 213 126 111 295 300 343 320 318 302 273 260 247 241 237 226 207 206 212 210 207 181 167 157 152 153
246 220 210 203 200 199 199 197 196 187 183 189 199 205 209 207 214 218 226 203 177 177 254 274 279 290 301 281 269 266 257 234 221 224 220 203 201 202 197 178 167 164 165 163
309 272 235 212 209 207 206 197 193 190 186 189 198 202 207 207 209 221 237 203 173 186 242 267 262 270 276 274 282 295 294 274 234 208 221 211 198 195 201 187 179 176 173 170
333 324 316 274 241 216 210 200 192 184 185 189 199 203 202 198 199 202 215 238 235 220 226 249 258 260 263 287 325 317 305 291 234 204 213 220 216 199 199 207 200 186 179 176
323 314 309 302 296 272 251 232 208 198 191 189 196 202 205 204 197 197 204 213 222 217 217 225 237 248 261 271 276 279 282 283 279 242 217 216 217 212 200 198 194 189 181 176